Location: Gwatt
(46.7204°N, 7.6223°E)
Time: 02:18:32
(UTC+00:00)

S-56A Canister/Altair - Pass Details

Date: 23 June 2021
Orbit: 631 x 2501 km, 38.9° (Epoch: 02 August)

Event Time Altitude Azimuth Distance (km) Brightness Sun altitude
Exits shadow 02:53:52 - 213° (SSW) 2,345 9.4 -6.3°
Reaches altitude 10° 02:54:43 10° 206° (SSW) 2,073 9.2 -6.2°
Maximum altitude 02:57:59 19° 160° (SSE) 1,488 8.8 -5.8°
Drops below altitude 10° 03:01:11 10° 113° (ESE) 2,021 10.0 -5.4°
Sets 03:04:06 0° 96° (E) 3,014 11.3 -5.1°
